TEST Weather Reports


time (UTC)temp
C
wind
direction
speed
KPH
gust
KPH
rain 1hr
cm
rain 24hr
cm
rain mn
cm
humidity
%
barometer
mb
20260504173350 8 323 1.6 8.0 0.00 8.41 0.03 96 1019.3
20260504172830 8 304 3.2 8.0 0.00 8.41 0.03 96 1019.2
20260504172330 8 323 4.8 9.7 0.00 8.41 0.03 96 1019.3
20260504171827 8 338 3.2 11.3 0.00 8.41 0.03 96 1019.2
20260504171310 7 358 3.2 9.7 0.00 8.41 0.03 96 1019.3
20260504170815 7 338 6.4 11.3 0.00 8.41 0.03 96 1019.3
20260504170318 7 317 1.6 6.4 0.00 8.41 0.03 95 1019.4
20260504160320 7 312 0.0 4.8 0.10 9.09 0.03 95 1019.8
20260504150833 8 351 0.0 4.8 0.00 10.01 0.00 95 1020.0
20260504150314 8 307 0.0 4.8 0.00 10.01 0.00 95 1019.9
20260504141330 8 320 0.0 3.2 0.00 11.20 0.00 95 1020.3
20260504140812 8 335 0.0 3.2 0.00 11.20 0.00 95 1020.3
20260504130812 8 320 1.6 4.8 0.00 12.80 2.24 95 1019.9
20260504130336 8 318 1.6 4.8 0.00 12.80 2.24 95 1019.9
20260504110316 10 331 0.0 1.6 0.00 16.41 2.21 94 1019.8
20260504100321 11 329 0.0 1.6 0.00 17.30 2.21 94 1019.2
20260504081823 12 4 0.0 0.0 0.00 17.50 2.21 93 1018.1
20260504081332 12 4 0.0 0.0 0.00 17.50 2.21 93 1018.0
20260504080326 12 4 0.0 0.0 0.00 17.50 2.21 94 1017.9
20260504070312 12 52 0.0 1.6 0.89 17.50 2.21 93 1017.2
20260504050339 12 185 3.2 4.8 0.10 16.69 1.96 94 1016.9
20260504045830 12 190 0.0 4.8 0.10 16.89 1.96 94 1016.9
20260504045328 12 190 1.6 4.8 0.10 16.89 1.96 94 1016.8
20260504044814 12 171 1.6 6.4 0.10 16.89 1.96 95 1016.8
20260504044318 12 165 3.2 6.4 0.00 16.79 1.93 95 1016.7
20260504043821 12 211 4.8 6.4 0.10 16.79 1.93 95 1016.8
20260504043327 12 201 0.0 1.6 0.10 16.79 1.93 95 1016.7
20260504042830 12 202 0.0 12.9 0.10 16.79 1.93 94 1016.8
20260504042322 12 202 3.2 17.7 0.10 16.79 1.93 94 1016.8
20260504041825 12 180 8.0 17.7 0.10 16.79 1.93 94 1016.8
20260504041327 12 190 8.0 12.9 0.10 16.79 1.93 94 1016.8
20260504040829 13 190 3.2 8.0 0.10 16.79 1.93 94 1016.9
20260504040312 13 207 1.6 4.8 0.10 16.79 1.93 94 1017.0
20260504035836 13 238 0.0 1.6 0.20 16.79 1.93 95 1017.0
20260504035320 13 238 0.0 1.6 0.30 16.79 1.93 95 1016.8
20260504034819 13 258 0.0 1.6 0.30 16.79 1.93 95 1016.9
20260504034324 13 259 0.0 1.6 0.20 16.69 1.93 95 1016.8
20260504033829 13 276 0.0 4.8 0.30 16.69 1.93 95 1016.9
20260504033335 13 271 0.0 4.8 1.09 16.69 1.93 95 1017.0
20260504032840 13 290 0.0 1.6 1.19 16.69 1.93 95 1016.9
20260504032345 13 294 0.0 1.6 4.39 16.69 1.93 95 1016.9
20260504031822 13 294 0.0 0.0 4.39 16.69 1.93 95 1016.8
20260504031356 13 294 0.0 3.2 4.39 16.69 1.93 95 1016.8
20260504030813 13 41 0.0 1.6 4.39 16.69 1.93 95 1016.8
20260504030314 13 43 0.0 0.0 4.39 16.69 1.93 95 1017.0
20260504025817 13 43 0.0 0.0 4.29 16.51 1.88 95 1017.0
20260504025336 13 44 0.0 0.0 4.29 16.51 1.88 95 1017.0
20260504024820 13 44 0.0 1.6 4.29 16.51 1.88 95 1017.0
20260504024325 13 43 0.0 3.2 4.29 16.51 1.88 95 1017.1
20260504023828 13 75 0.0 3.2 4.09 16.31 1.83 95 1017.1
20260504023352 13 202 0.0 3.2 3.30 15.49 1.68 95 1017.6
20260504022814 13 150 1.6 3.2 3.30 15.49 1.68 95 1017.1
20260504022333 13 190 0.0 4.8 0.10 12.29 1.04 95 1017.3
20260504021817 13 190 1.6 4.8 0.20 12.29 1.04 95 1017.4
20260504021342 13 190 1.6 4.8 0.20 12.29 1.04 95 1017.4
20260504020826 13 190 3.2 4.8 0.20 12.29 1.04 95 1017.4
20260504020330 13 194 3.2 6.4 0.20 12.29 1.04 95 1017.6
20260504015827 13 196 1.6 8.0 0.10 12.19 1.02 95 1017.7
20260504015333 13 180 4.8 14.5 0.10 12.19 1.02 95 1017.6
20260504014831 13 196 6.4 14.5 0.10 12.19 1.02 94 1017.9
20260504014333 13 190 8.0 14.5 0.10 12.19 1.02 94 1017.7
20260504013837 13 171 9.7 14.5 0.20 12.19 1.02 94 1017.8
20260504013312 13 195 8.0 9.7 0.20 12.19 1.02 94 1017.9
20260504012814 13 180 6.4 12.9 0.20 12.19 1.02 94 1018.0
20260504012319 13 164 8.0 12.9 0.20 12.19 1.02 94 1018.0
20260504011824 13 180 4.8 12.9 0.10 12.09 0.99 94 1018.1
20260504011327 13 174 6.4 12.9 0.10 12.09 0.99 94 1018.1
20260504010825 13 171 6.4 9.7 0.20 12.09 0.99 94 1018.1
20260504010329 13 155 4.8 9.7 0.20 12.09 0.99 94 1018.0
20260504005840 13 168 6.4 9.7 0.20 12.09 0.99 94 1018.2
20260504005314 14 190 4.8 9.7 0.20 12.09 0.99 94 1018.1
20260504004818 14 180 8.0 9.7 0.20 12.09 0.99 93 1018.1
20260504004317 14 180 3.2 6.4 0.20 12.09 0.99 93 1018.2
20260504003834 15 204 1.6 3.2 0.20 11.99 0.99 93 1018.2
20260504003330 15 218 0.0 1.6 0.20 11.99 0.99 94 1018.1
20260504002835 15 263 0.0 3.2 0.20 11.99 0.99 94 1018.1
20260504002341 15 242 0.0 3.2 0.20 11.99 0.99 94 1018.2
20260504001846 15 190 0.0 3.2 0.20 11.99 0.99 94 1018.2
20260504001311 15 264 0.0 8.0 0.30 11.99 0.99 94 1018.1
20260504000836 15 231 1.6 8.0 0.20 11.91 0.97 94 1018.1
20260504000315 15 284 3.2 8.0 0.20 11.91 0.97 94 1018.0
20260503235838 15 251 3.2 8.0 0.20 11.91 0.97 94 1018.0
20260503235320 15 266 1.6 8.0 0.20 11.91 0.97 93 1017.7
20260503234822 15 229 3.2 9.7 0.30 11.91 0.97 93 1017.8
20260503234323 16 262 0.0 4.8 0.30 11.91 0.97 94 1017.8
20260503233829 16 13 1.6 12.9 0.20 11.81 0.94 94 1017.8
20260503233334 16 350 1.6 12.9 0.20 11.81 0.94 94 1017.9
20260503232811 16 320 1.6 8.0 0.20 11.81 0.94 94 1018.0
20260503232312 16 325 1.6 16.1 0.30 11.81 0.94 94 1017.9
20260503231818 16 285 6.4 16.1 0.30 11.81 0.94 94 1017.8
20260503231322 16 344 8.0 19.3 0.20 11.71 0.91 94 1017.8
20260503230827 16 360 14.5 19.3 0.20 11.71 0.91 94 1017.7
20260503230325 16 23 9.7 17.7 0.20 11.71 0.91 94 1017.8
20260503225836 16 340 12.9 17.7 0.30 11.71 0.91 94 1017.7
20260503225314 16 10 11.3 17.7 0.30 11.71 0.91 94 1017.5
20260503224819 15 1 12.9 19.3 0.20 11.61 0.89 94 1017.5
20260503224322 15 12 12.9 19.3 0.20 11.61 0.89 94 1017.4
20260503223827 15 343 12.9 17.7 0.20 11.61 0.89 94 1017.3
20260503223347 15 14 11.3 25.7 0.30 11.61 0.89 94 1017.4
20260503222832 15 343 14.5 25.7 0.30 11.61 0.89 94 1017.4
20260503222316 15 7 14.5 20.9 0.20 11.51 0.89 94 1017.4
20260503221821 15 358 14.5 20.9 0.20 11.51 0.89 94 1017.3
20260503221324 15 17 14.5 24.1 0.30 11.51 0.89 94 1017.6
20260503220818 15 351 16.1 29.0 0.30 11.51 0.89 94 1017.6
20260503220325 15 340 16.1 25.7 0.30 11.51 0.89 94 1017.6
20260503215837 15 308 17.7 27.4 0.20 11.40 0.86 94 1017.5
20260503215314 15 13 12.9 27.4 0.20 11.40 0.86 94 1017.4
20260503214818 15 13 16.1 27.4 0.30 11.40 0.86 94 1017.4
20260503214321 16 13 17.7 27.4 0.30 11.40 0.86 94 1017.3
20260503213817 16 352 12.9 22.5 0.30 11.40 0.86 94 1017.3
20260503213323 16 27 16.1 25.7 0.20 11.30 0.84 94 1017.4
20260503212848 16 350 17.7 25.7 0.30 11.30 0.84 94 1017.3
20260503212313 16 356 14.5 25.7 0.30 11.30 0.84 94 1017.2
20260503211812 16 4 17.7 25.7 0.30 11.30 0.84 94 1017.1
20260503211323 16 358 16.1 22.5 0.20 11.20 0.81 94 1017.1
20260503210820 16 355 16.1 27.4 0.20 11.20 0.81 94 1017.0
20260503210325 16 11 16.1 27.4 0.20 11.20 0.81 94 1017.0
20260503205830 16 346 16.1 25.7 0.30 11.20 0.81 94 1016.9
20260503205314 16 357 16.1 27.4 0.30 11.20 0.81 94 1016.9
20260503204836 16 5 14.5 27.4 0.20 11.10 0.79 94 1016.9
20260503204314 16 323 17.7 29.0 0.20 11.10 0.79 94 1017.0
20260503203819 16 18 17.7 29.0 0.20 11.10 0.79 94 1016.9
20260503203323 16 22 14.5 27.4 0.20 11.10 0.79 94 1016.9
20260503202827 16 346 11.3 20.9 0.20 11.00 0.79 94 1016.8
20260503202333 16 13 14.5 20.9 0.20 11.00 0.79 94 1016.8
20260503201835 16 33 12.9 19.3 0.20 11.00 0.79 94 1016.9
20260503201321 16 11 12.9 22.5 0.20 11.00 0.79 94 1016.9
20260503200820 16 18 12.9 22.5 0.20 11.00 0.79 94 1016.8
20260503200347 16 21 14.5 22.5 0.30 11.00 0.79 94 1016.9
20260503195829 16 7 14.5 24.1 0.20 10.90 0.76 94 1017.0
20260503195313 16 343 16.1 24.1 0.20 10.90 0.76 94 1017.0
20260503194837 16 356 11.3 17.7 0.20 10.90 0.76 94 1016.9
20260503194322 16 6 9.7 17.7 0.30 10.90 0.76 94 1016.7
20260503193820 16 20 12.9 16.1 0.30 10.90 0.76 94 1016.9
20260503193342 16 7 12.9 19.3 0.30 10.90 0.76 94 1016.8
20260503192846 16 353 11.3 19.3 0.20 10.79 0.74 94 1016.9
20260503192330 16 338 14.5 20.9 0.30 10.79 0.74 94 1016.8
20260503191810 16 346 11.3 19.3 0.30 10.79 0.74 94 1016.9
20260503191315 16 1 9.7 14.5 0.30 10.79 0.74 94 1016.9
20260503190821 16 340 8.0 12.9 0.30 10.79 0.74 94 1016.8
20260503190347 16 345 8.0 12.9 0.30 10.69 0.71 94 1016.7
20260503185824 16 357 8.0 16.1 0.30 10.69 0.71 94 1016.7
20260503185329 16 358 8.0 16.1 0.30 10.69 0.71 94 1016.8
20260503184854 16 8 9.7 16.1 0.41 10.69 0.71 94 1016.8
20260503184319 16 340 9.7 16.1 0.30 10.59 0.71 94 1016.8
20260503183817 16 18 11.3 16.1 0.30 10.59 0.71 94 1016.7
20260503183323 16 7 11.3 16.1 0.41 10.59 0.71 94 1016.8
20260503182848 16 9 9.7 14.5 0.41 10.59 0.71 94 1016.9
20260503182332 16 347 6.4 14.5 0.30 10.49 0.69 94 1016.8
20260503181811 16 359 8.0 12.9 0.41 10.49 0.69 94 1016.7
20260503181333 15 334 8.0 14.5 0.41 10.49 0.69 94 1016.7
20260503180816 15 2 9.7 14.5 0.51 10.49 0.69 94 1016.6
20260503180321 15 358 9.7 16.1 0.41 10.39 0.66 94 1016.5
20260503175822 15 25 8.0 16.1 0.51 10.39 0.66 94 1016.6
20260503175327 15 352 11.3 16.1 0.51 10.39 0.66 94 1016.6
20260503174844 16 11 11.3 16.1 0.51 10.31 0.64 94 1016.8
20260503174334 16 9 9.7 12.9 0.51 10.31 0.64 94 1016.9